INTELSAT 15 (IS-15)

Last updated on Fri Jul 10 2026 00:03:02 GMT+0000 (Coordinated Universal Time)

1 36106U 09067A 26190.10669520 -.00000170 00000+0 00000+0 0 9992 2 36106 0.0158 35.0887 0001977 71.6051 303.9132 1.00265516 41447
UTC large
Height (km)
Speed (km/s)
/
Latitude / Longitude
Inclination (degrees)
Orbital Period (minutes)
Azimuth
Elevation
Range (km)
Doppler Factor

Next 0 passes for location: London (51.5072 / 0.1276)

No passes found over London.
INTELSAT 15 (IS-15)